This is the latest recevied weather packets stored in our database for station/object F5ZYU-10. If no packets are shown the sender has not sent any weather packets the latest 10 day(s).
| Time | Temp. | Humidity | Pressure | Rain* | Wind** | Luminosity | Snow |
|---|---|---|---|---|---|---|---|
| 1787595206 | 23.89° C | 66% | 1019.9 hPa | - | - | - | - |
| 1787594306 | 24.44° C | 66% | 1019.5 hPa | - | - | - | - |
| 1787593407 | 24.44° C | 65% | 1019.6 hPa | - | - | - | - |
| 1787591606 | 23.89° C | 65% | 1020 hPa | - | - | - | - |
| 1787589814 | 25° C | 63% | 1020.3 hPa | - | - | - | - |
| 1787588007 | 23.89° C | 56% | 1020 hPa | - | - | - | - |
| 1787587113 | 23.89° C | 52% | 1019.8 hPa | - | - | - | - |
| 1787586206 | 23.89° C | 50% | 1019.5 hPa | - | - | - | - |
| 1787585306 | 23.89° C | 50% | 1019.5 hPa | - | - | - | - |
| 1787583513 | 23.33° C | 54% | 1018.9 hPa | - | - | - | - |
| 1787581709 | 22.78° C | 68% | 1019.9 hPa | - | - | - | - |
| 1787580807 | 23.33° C | 66% | 1020.4 hPa | - | - | - | - |
| 1787579913 | 23.33° C | 66% | 1020.8 hPa | - | - | - | - |
| 1787579013 | 22.78° C | 66% | 1021.3 hPa | - | - | - | - |
| 1787578112 | 23.33° C | 66% | 1021.4 hPa | - | - | - | - |
| 1787577212 | 23.33° C | 65% | 1021.4 hPa | - | - | - | - |
| 1787576312 | 23.33° C | 65% | 1021.3 hPa | - | - | - | - |
| 1787575405 | 23.33° C | 66% | 1021.9 hPa | - | - | - | - |
| 1787574512 | 23.89° C | 64% | 1021.4 hPa | - | - | - | - |
| 1787573612 | 23.89° C | 64% | 1021.5 hPa | - | - | - | - |
| 1787572711 | 23.33° C | 64% | 1021.3 hPa | - | - | - | - |
| 1787571812 | 22.78° C | 65% | 1021.2 hPa | - | - | - | - |
| 1787570012 | 22.78° C | 66% | 1021.4 hPa | - | - | - | - |
| 1787569112 | 22.22° C | 66% | 1021.7 hPa | - | - | - | - |
| 1787567312 | 21.67° C | 67% | 1021.8 hPa | - | - | - | - |
* Rain since midnight (hover to see other rain measurements)
** Current wind speed in m/s (hover to see current wind gust speed)